Flag for Italy Weather past 2 weeks in Avellino, Italy

Now
64 °F

Sunny.


Feels Like: 64 °F
Forecast: 55 / 84 °F
Wind: 17 mph from West

Location: Trevico

Current Time: May 6, 2015 at 9:39:18 PM

Latest Report: May 6, 2015 at 8:55 PM


Visibility: 10 mi

Pressure: 30.07 "Hg

Humidity: 40%

Dew point: 39 °F

Location of AvellinoLocation

Historic Weather in Avellino — Graph

°F

Avellino temperature yesterday

Maximum temperature yesterday: 75 °F (at 3:55 PM)
Minimum temperature yesterday: 63 °F (at 5:55 AM)
Average temperature yesterday: 70 °F

Past Weeks' High & Low Weather Summary

 TemperatureHumidityPressure
High77 °F (May 6, 1:55 PM)100% (Apr 25, 11:55 PM)30.24 "Hg (Apr 25, 11:55 PM)
Low43 °F (May 1, 6:55 AM)24% (May 6, 11:55 AM)29.68 "Hg (Apr 28, 5:55 AM)
Average54 °F67%30.03 "Hg
* Reported Apr 21 7:55 PM — May 6 7:55 PM, Avellino, Weather by CustomWeather, © 2015

Note: Actual official high and low records may vary slightly from our data, if they occured in-between our weather recording intervals... More about our weather records

Advertising

Avellino weather history for previous 24 hours

 ConditionsComfort  
Time TempWeatherWind HumidityBarometerVisibility
7:55 PM
Wed, May 6
66 °FSunny.22 mph46%30.07 "Hg10 mi
6:55 PM72 °FSunny.17 mph47%30.07 "Hg10 mi
5:55 PM73 °FSunny.13 mph36%30.07 "Hg10 mi
4:55 PM75 °FSunny.10 mph44%30.07 "Hg10 mi
3:55 PM77 °FSunny.14 mph44%30.07 "Hg10 mi
2:55 PM77 °FSunny.7 mph39%30.09 "Hg10 mi
1:55 PM77 °FSunny.7 mph39%30.09 "Hg10 mi
12:55 PM75 °FSunny.6 mph27%30.09 "Hg10 mi
11:55 AM75 °FSunny.8 mph24%30.09 "Hg10 mi
10:55 AM70 °FSunny.17 mph29%30.09 "Hg10 mi
9:55 AM68 °FSunny.21 mph38%30.09 "Hg10 mi
8:55 AM64 °FSunny.22 mph43%30.07 "Hg10 mi
7:55 AM64 °FSunny.23 mph43%30.09 "Hg10 mi
6:55 AM64 °FSunny.22 mph40%30.04 "Hg10 mi
1:55 AM64 °FClear.21 mph40%30.07 "Hg10 mi
12:55 AM64 °FClear.21 mph40%30.07 "Hg10 mi
11:55 PM
Tue, May 5
66 °FClear.21 mph40%30.07 "Hg10 mi
10:55 PM66 °FClear.23 mph40%30.07 "Hg10 mi
9:55 PM68 °FClear.15 mph38%30.07 "Hg10 mi
Weather by CustomWeather, © 2015

See weather overviewHow to use our weather pages